User: anonymous   Login
Location: Feydey
(46.3431°N, 7.0106°E)
Time: 21:56:58
(UTC+00:00)
Language:

Cosmos 2322 Rocket - Orbit

View from above orbital plane
View from above orbital plane
View from above satellite
View from above satellite

Ground track
Ground track

The orbit data is extracted from the following two-line orbital elements,

1 23705U 95058B   21269.47425421  .00000239  00000-0  14735-3 0  9990
2 23705  71.0252 351.1709 0010381  73.5809 286.6454 14.15155256337909
Epoch (UTC): 26 September 2021 11:22:55
Eccentricity: 0.0010381
inclination: 71.0252°
perigee height: 834 km
apogee height: 849 km
right ascension of ascending node: 351.1709°
argument of perigee: 73.5809°
revolutions per day: 14.15155256
mean anomaly at epoch: 286.6454°
orbit number at epoch: 33790

The dashed part of the orbit path shows where the satellite is in the earth's shadow,  

DLR